BCS421 LEVT-LIMC

Flight info

Callsign BCS421
Flight time 1h 28m
Altitude 38000
Route PPN N995 LATEK DCT GONUP DCT TOU DCT GAI DCT MEN DCT NINUN DCT LATAM DCT ROMAM/N0447F390 DCT ETIDO DCT NEDRU DCT RILIP/N0383F270 DCT EMMEF/N0372F250 DCT LAPRI/N0366F240 DCT MOGBO/N0372F250 DCT TOP/N0342F190 M135 ASTIG
Aircraft B738/M-SDE2E3FGHIRWXY/LB1

Departure

Time 2026-05-05 18:15
Airport Vitoria Airport (LEVT)

Arrival

Time 2026-05-05 19:44
Airport Milan Malpensa International Airport (LIMC)
Time Latitude Longitude Altitude Speed Heading
2026-05-05 17:58 42.87672 -2.73665 1675 ft 0 kts 73°
2026-05-05 18:10 42.87681 -2.73636 1674 ft 6 kts 60°
2026-05-05 18:10 42.87715 -2.73580 1669 ft 10 kts 43°
2026-05-05 18:10 42.87779 -2.73515 1675 ft 10 kts 35°
2026-05-05 18:11 42.87803 -2.73488 1669 ft 5 kts 44°
2026-05-05 18:11 42.87820 -2.73464 1676 ft 0 kts 51°
2026-05-05 18:11 42.87820 -2.73463 1677 ft 1 kts 53°
2026-05-05 18:11 42.87821 -2.73442 1665 ft 4 kts 103°
2026-05-05 18:12 42.87814 -2.73423 1675 ft 0 kts 121°
2026-05-05 18:12 42.87809 -2.73411 1671 ft 6 kts 123°
2026-05-05 18:12 42.87775 -2.73347 1672 ft 9 kts 126°
2026-05-05 18:12 42.87715 -2.73314 1665 ft 11 kts 194°
2026-05-05 18:13 42.87640 -2.73384 1664 ft 16 kts 214°
2026-05-05 18:13 42.87528 -2.73495 1668 ft 23 kts 216°
2026-05-05 18:13 42.87392 -2.73630 1667 ft 26 kts 216°
2026-05-05 18:13 42.87240 -2.73781 1664 ft 28 kts 216°
2026-05-05 18:14 42.87103 -2.73842 1668 ft 18 kts 132°
2026-05-05 18:14 42.87049 -2.73725 1661 ft 10 kts 104°
2026-05-05 18:14 42.87071 -2.73641 1659 ft 9 kts 43°
2026-05-05 18:14 42.87160 -2.73551 1658 ft 39 kts 36°
2026-05-05 18:15 42.87565 -2.73154 1667 ft 103 kts 36°
2026-05-05 18:15 42.88302 -2.72430 1683 ft 155 kts 36°
2026-05-05 18:15 42.89164 -2.71514 2189 ft 155 kts 37°
2026-05-05 18:15 42.90063 -2.70580 2583 ft 172 kts 35°
2026-05-05 18:16 42.91022 -2.69519 3172 ft 182 kts 49°
2026-05-05 18:16 42.91583 -2.67873 3495 ft 207 kts 77°
2026-05-05 18:16 42.91578 -2.65848 3800 ft 223 kts 99°
2026-05-05 18:16 42.90973 -2.63797 3964 ft 246 kts 122°
2026-05-05 18:17 42.89987 -2.61819 4242 ft 266 kts 123°
2026-05-05 18:17 42.88924 -2.59687 4756 ft 276 kts 123°
2026-05-05 18:17 42.87837 -2.57509 5430 ft 280 kts 123°
2026-05-05 18:17 42.86745 -2.55295 6140 ft 283 kts 123°
2026-05-05 18:18 42.85647 -2.53044 6845 ft 286 kts 123°
2026-05-05 18:18 42.84547 -2.50771 7546 ft 289 kts 123°
2026-05-05 18:18 42.83435 -2.48469 8253 ft 292 kts 123°
2026-05-05 18:18 42.82311 -2.46140 8972 ft 296 kts 123°
2026-05-05 18:19 42.81179 -2.43784 9717 ft 299 kts 123°
2026-05-05 18:19 42.80046 -2.41396 10423 ft 302 kts 123°
2026-05-05 18:19 42.78929 -2.38943 11020 ft 310 kts 116°
2026-05-05 18:19 42.78347 -2.36024 11199 ft 332 kts 96°
2026-05-05 18:20 42.78143 -2.32806 11382 ft 353 kts 93°
2026-05-05 18:20 42.78027 -2.30559 11493 ft 366 kts 93°
2026-05-05 18:20 42.77836 -2.27009 11642 ft 385 kts 94°
2026-05-05 18:20 42.77608 -2.23310 11957 ft 397 kts 95°
2026-05-05 18:21 42.77350 -2.19554 12550 ft 401 kts 95°
2026-05-05 18:21 42.77070 -2.15765 13217 ft 404 kts 96°
2026-05-05 18:21 42.76776 -2.11944 13846 ft 407 kts 96°
2026-05-05 18:21 42.76471 -2.08088 14426 ft 411 kts 96°
2026-05-05 18:22 42.76162 -2.04211 15034 ft 415 kts 96°
2026-05-05 18:22 42.75848 -2.00290 15635 ft 418 kts 96°
2026-05-05 18:22 42.75530 -1.96340 16234 ft 421 kts 96°
2026-05-05 18:22 42.75209 -1.92358 16804 ft 425 kts 96°
2026-05-05 18:23 42.74888 -1.88387 17349 ft 430 kts 96°
2026-05-05 18:23 42.74555 -1.84286 17938 ft 433 kts 96°
2026-05-05 18:23 42.74222 -1.80194 18487 ft 436 kts 96°
2026-05-05 18:23 42.73888 -1.76123 18966 ft 440 kts 97°
2026-05-05 18:24 42.73580 -1.71964 19464 ft 443 kts 93°
2026-05-05 18:24 42.73655 -1.67775 19944 ft 446 kts 83°
2026-05-05 18:24 42.74192 -1.63606 20422 ft 448 kts 78°
2026-05-05 18:24 42.74807 -1.59415 20869 ft 452 kts 78°
2026-05-05 18:25 42.75426 -1.55220 21322 ft 455 kts 78°
2026-05-05 18:25 42.75835 -1.52419 21606 ft 457 kts 79°
2026-05-05 18:25 42.76647 -1.46721 22198 ft 460 kts 79°
2026-05-05 18:25 42.77249 -1.42406 22620 ft 463 kts 79°
2026-05-05 18:26 42.77845 -1.38082 23029 ft 466 kts 79°
2026-05-05 18:26 42.78438 -1.33737 23428 ft 469 kts 79°
2026-05-05 18:26 42.79032 -1.29364 23779 ft 472 kts 79°
2026-05-05 18:26 42.79630 -1.24952 24099 ft 475 kts 79°
2026-05-05 18:27 42.80230 -1.20513 24406 ft 478 kts 80°
2026-05-05 18:27 42.80833 -1.16046 24709 ft 480 kts 80°
2026-05-05 18:27 42.81437 -1.11555 25016 ft 482 kts 80°
2026-05-05 18:27 42.82040 -1.07060 25331 ft 485 kts 80°
2026-05-05 18:28 42.83252 -0.97977 25864 ft 491 kts 80°
2026-05-05 18:28 42.83862 -0.93383 26121 ft 494 kts 80°
2026-05-05 18:28 42.84474 -0.88765 26406 ft 495 kts 80°
2026-05-05 18:29 42.85086 -0.84130 26684 ft 498 kts 81°
2026-05-05 18:29 42.85692 -0.79532 26918 ft 500 kts 81°
2026-05-05 18:29 42.86307 -0.74850 27202 ft 502 kts 81°
2026-05-05 18:29 42.86927 -0.70165 27574 ft 501 kts 79°
2026-05-05 18:30 42.87836 -0.65569 27931 ft 503 kts 71°
2026-05-05 18:30 42.89226 -0.61208 28246 ft 504 kts 61°
2026-05-05 18:30 42.90980 -0.57061 28540 ft 504 kts 59°
2026-05-05 18:30 42.92773 -0.52940 28879 ft 505 kts 59°
2026-05-05 18:31 42.94570 -0.48814 29219 ft 505 kts 59°
2026-05-05 18:31 42.96355 -0.44676 29567 ft 505 kts 59°
2026-05-05 18:31 42.98126 -0.40525 29862 ft 506 kts 60°
2026-05-05 18:31 42.99883 -0.36366 30137 ft 507 kts 60°
2026-05-05 18:32 43.01641 -0.32181 30422 ft 507 kts 60°
2026-05-05 18:32 43.03384 -0.28015 31014 ft 500 kts 60°
2026-05-05 18:32 43.05102 -0.23901 31499 ft 496 kts 60°
2026-05-05 18:32 43.06811 -0.19804 31726 ft 499 kts 60°
2026-05-05 18:33 43.08537 -0.15662 31850 ft 503 kts 60°
2026-05-05 18:33 43.10265 -0.11512 32101 ft 503 kts 60°
2026-05-05 18:33 43.11973 -0.07405 32437 ft 502 kts 60°
2026-05-05 18:33 43.13698 -0.03251 32784 ft 501 kts 60°
2026-05-05 18:34 43.15421 0.00902 33051 ft 501 kts 60°
2026-05-05 18:34 43.17140 0.05053 33241 ft 503 kts 60°
2026-05-05 18:34 43.18869 0.09233 33490 ft 504 kts 60°
2026-05-05 18:34 43.20595 0.13412 33822 ft 503 kts 60°
2026-05-05 18:35 43.22309 0.17570 34106 ft 502 kts 60°
2026-05-05 18:35 43.24027 0.21741 34376 ft 501 kts 60°
2026-05-05 18:35 43.25736 0.25898 34678 ft 499 kts 60°
2026-05-05 18:35 43.27434 0.30035 34913 ft 499 kts 60°
2026-05-05 18:36 43.29140 0.34194 35091 ft 500 kts 60°
2026-05-05 18:36 43.30847 0.38364 35265 ft 501 kts 61°
2026-05-05 18:36 43.32549 0.42529 35434 ft 502 kts 61°
2026-05-05 18:36 43.34260 0.46721 35613 ft 503 kts 61°
2026-05-05 18:37 43.35969 0.50914 35861 ft 502 kts 61°
2026-05-05 18:37 43.37673 0.55100 36114 ft 501 kts 61°
2026-05-05 18:37 43.39374 0.59286 36307 ft 501 kts 61°
2026-05-05 18:37 43.41069 0.63463 36494 ft 501 kts 61°
2026-05-05 18:38 43.42769 0.67658 36686 ft 501 kts 60°
2026-05-05 18:38 43.44462 0.71840 37060 ft 497 kts 61°
2026-05-05 18:38 43.46140 0.75992 37363 ft 495 kts 60°
2026-05-05 18:38 43.47810 0.80134 37471 ft 497 kts 61°
2026-05-05 18:39 43.51174 0.88504 37735 ft 499 kts 61°
2026-05-05 18:39 43.52830 0.92634 37961 ft 498 kts 61°
2026-05-05 18:39 43.54511 0.96832 37948 ft 501 kts 61°
2026-05-05 18:40 43.57874 1.05249 37959 ft 499 kts 61°
2026-05-05 18:40 43.61212 1.13627 37961 ft 496 kts 61°
2026-05-05 18:41 43.64519 1.21954 37962 ft 494 kts 61°
2026-05-05 18:41 43.67814 1.30255 37968 ft 492 kts 60°
2026-05-05 18:42 43.71641 1.38014 37971 ft 491 kts 52°
2026-05-05 18:42 43.75817 1.45581 37968 ft 492 kts 52°
2026-05-05 18:43 43.79936 1.53162 37944 ft 494 kts 53°
2026-05-05 18:43 43.84024 1.60846 37973 ft 496 kts 53°
2026-05-05 18:44 43.88082 1.68525 37975 ft 498 kts 53°
2026-05-05 18:44 43.92186 1.76298 37947 ft 501 kts 53°
2026-05-05 18:45 43.96301 1.84124 37951 ft 502 kts 54°
2026-05-05 18:45 44.00306 1.92091 37934 ft 503 kts 55°
2026-05-05 18:46 44.04254 2.00101 37947 ft 502 kts 56°
2026-05-05 18:46 44.08202 2.08100 37939 ft 501 kts 55°
2026-05-05 18:47 44.12156 2.16094 37942 ft 500 kts 55°
2026-05-05 18:47 44.16093 2.24065 37944 ft 499 kts 55°
2026-05-05 18:48 44.20024 2.32047 37944 ft 499 kts 55°
2026-05-05 18:48 44.23942 2.40025 37937 ft 498 kts 56°
2026-05-05 18:49 44.27821 2.47947 37929 ft 497 kts 56°
2026-05-05 18:49 44.31713 2.55918 37934 ft 496 kts 56°
2026-05-05 18:50 44.35585 2.63871 37932 ft 495 kts 56°
2026-05-05 18:50 44.39455 2.71840 37950 ft 494 kts 56°
2026-05-05 18:51 44.43315 2.79810 37928 ft 494 kts 56°
2026-05-05 18:51 44.47163 2.87778 37939 ft 494 kts 56°
2026-05-05 18:52 44.51010 2.95766 37939 ft 494 kts 56°
2026-05-05 18:52 44.54827 3.03714 37938 ft 494 kts 56°
2026-05-05 18:53 44.58660 3.11717 37935 ft 494 kts 56°
2026-05-05 18:53 44.62381 3.19825 37910 ft 494 kts 60°
2026-05-05 18:54 44.65748 3.28252 37921 ft 494 kts 62°
2026-05-05 18:54 44.68683 3.36947 37920 ft 492 kts 73°
2026-05-05 18:55 44.70583 3.46178 37923 ft 492 kts 76°
2026-05-05 18:55 44.72398 3.55451 37906 ft 492 kts 76°
2026-05-05 18:56 44.74272 3.64728 37917 ft 493 kts 75°
2026-05-05 18:56 44.76181 3.73999 37906 ft 493 kts 75°
2026-05-05 18:57 44.78089 3.83251 37897 ft 492 kts 75°
2026-05-05 18:57 44.79987 3.92513 37896 ft 491 kts 75°
2026-05-05 18:58 44.81869 4.01748 37901 ft 490 kts 75°
2026-05-05 18:58 44.83742 4.10991 37903 ft 490 kts 76°
2026-05-05 18:59 44.85592 4.20162 37868 ft 490 kts 76°
2026-05-05 18:59 44.87447 4.29399 37889 ft 489 kts 76°
2026-05-05 19:00 44.89290 4.38618 37889 ft 489 kts 76°
2026-05-05 19:00 44.91129 4.47857 37895 ft 489 kts 76°
2026-05-05 19:01 44.92956 4.57087 37885 ft 489 kts 76°
2026-05-05 19:01 44.94778 4.66327 37874 ft 489 kts 77°
2026-05-05 19:02 44.96595 4.75590 37909 ft 489 kts 77°
2026-05-05 19:02 44.98403 4.84853 37911 ft 490 kts 77°
2026-05-05 19:03 45.00211 4.94153 37881 ft 491 kts 77°
2026-05-05 19:03 45.02010 5.03459 37878 ft 492 kts 77°
2026-05-05 19:04 45.03809 5.12806 37895 ft 493 kts 77°
2026-05-05 19:04 45.05302 5.20598 37889 ft 494 kts 77°
2026-05-05 19:05 45.07098 5.30015 37899 ft 496 kts 77°
2026-05-05 19:05 45.08800 5.39477 37868 ft 496 kts 83°
2026-05-05 19:06 45.09037 5.49137 37917 ft 489 kts 97°
2026-05-05 19:06 45.08562 5.58748 37900 ft 490 kts 97°
2026-05-05 19:07 45.08138 5.68377 37891 ft 491 kts 97°
2026-05-05 19:07 45.07757 5.78023 37873 ft 490 kts 97°
2026-05-05 19:08 45.07295 5.87625 37904 ft 489 kts 99°
2026-05-05 19:08 45.06635 5.97137 37908 ft 488 kts 99°
2026-05-05 19:09 45.05961 6.06698 37911 ft 488 kts 99°
2026-05-05 19:09 45.05308 6.16267 37874 ft 488 kts 99°
2026-05-05 19:10 45.04659 6.25821 37896 ft 488 kts 99°
2026-05-05 19:10 45.03988 6.35390 37907 ft 488 kts 99°
2026-05-05 19:11 45.03281 6.44946 37913 ft 488 kts 99°
2026-05-05 19:11 45.02568 6.54479 37890 ft 488 kts 100°
2026-05-05 19:12 45.01860 6.63918 37905 ft 481 kts 100°
2026-05-05 19:12 45.01519 6.68533 37908 ft 466 kts 100°
2026-05-05 19:12 45.01196 6.73041 37897 ft 452 kts 100°
2026-05-05 19:13 45.00884 6.77399 37906 ft 439 kts 100°
2026-05-05 19:13 45.00574 6.81661 37915 ft 436 kts 101°
2026-05-05 19:13 44.99933 6.90256 37924 ft 445 kts 101°
2026-05-05 19:14 44.99278 6.99039 37970 ft 454 kts 101°
2026-05-05 19:14 44.98621 7.07969 37978 ft 462 kts 99°
2026-05-05 19:15 44.98390 7.12534 37804 ft 467 kts 97°
2026-05-05 19:15 44.98244 7.17110 37238 ft 468 kts 97°
2026-05-05 19:15 44.98128 7.21749 36287 ft 477 kts 97°
2026-05-05 19:15 44.98008 7.26488 35193 ft 489 kts 98°
2026-05-05 19:16 44.97871 7.31352 34092 ft 501 kts 99°
2026-05-05 19:16 44.97718 7.36321 32981 ft 510 kts 99°
2026-05-05 19:16 44.97555 7.41336 32117 ft 511 kts 99°
2026-05-05 19:16 44.97388 7.46328 31440 ft 508 kts 98°
2026-05-05 19:17 44.97217 7.51293 30781 ft 505 kts 98°
2026-05-05 19:17 44.97042 7.56237 30034 ft 503 kts 98°
2026-05-05 19:17 44.96864 7.61168 29123 ft 503 kts 98°
2026-05-05 19:17 44.96682 7.66108 28094 ft 502 kts 98°
2026-05-05 19:18 44.96497 7.71058 26936 ft 507 kts 98°
2026-05-05 19:18 44.96309 7.76036 25900 ft 508 kts 98°
2026-05-05 19:18 44.96124 7.80948 24973 ft 506 kts 97°
2026-05-05 19:18 44.95936 7.85901 24032 ft 504 kts 97°
2026-05-05 19:19 44.95747 7.90822 23171 ft 499 kts 97°
2026-05-05 19:19 44.95563 7.95632 22894 ft 481 kts 97°
2026-05-05 19:19 44.95386 8.00224 22371 ft 469 kts 97°
2026-05-05 19:19 44.95203 8.04790 21486 ft 467 kts 97°
2026-05-05 19:20 44.95014 8.09387 20571 ft 467 kts 97°
2026-05-05 19:20 44.94827 8.13943 19838 ft 462 kts 97°
2026-05-05 19:20 44.94642 8.18435 19193 ft 456 kts 97°
2026-05-05 19:20 44.94459 8.22876 18540 ft 451 kts 97°
2026-05-05 19:21 44.94281 8.27266 17817 ft 447 kts 96°
2026-05-05 19:21 44.94545 8.31632 17058 ft 450 kts 78°
2026-05-05 19:21 44.95471 8.35821 16454 ft 443 kts 74°
2026-05-05 19:21 44.96367 8.39914 15591 ft 429 kts 75°
2026-05-05 19:22 44.97190 8.43939 14465 ft 425 kts 73°
2026-05-05 19:22 44.98506 8.47650 13358 ft 423 kts 51°
2026-05-05 19:22 45.00697 8.50302 12376 ft 412 kts 28°
2026-05-05 19:22 45.03296 8.51834 11610 ft 397 kts 14°
2026-05-05 19:23 45.05914 8.52475 11407 ft 369 kts
2026-05-05 19:23 45.08400 8.52580 11253 ft 346 kts 359°
2026-05-05 19:23 45.10671 8.52622 11118 ft 326 kts 359°
2026-05-05 19:23 45.12890 8.52671 10991 ft 309 kts 359°
2026-05-05 19:24 45.14986 8.52739 10894 ft 293 kts 359°
2026-05-05 19:24 45.16973 8.52817 10781 ft 279 kts 359°
2026-05-05 19:24 45.18871 8.52897 10608 ft 269 kts 359°
2026-05-05 19:24 45.20739 8.52975 10229 ft 268 kts 359°
2026-05-05 19:25 45.22589 8.52807 9818 ft 266 kts 346°
2026-05-05 19:25 45.24385 8.52240 9428 ft 264 kts 345°
2026-05-05 19:25 45.26176 8.51699 9039 ft 263 kts 346°
2026-05-05 19:25 45.27939 8.51191 8676 ft 261 kts 347°
2026-05-05 19:26 45.29711 8.50711 8357 ft 260 kts 352°
2026-05-05 19:26 45.31492 8.51045 8097 ft 261 kts 26°
2026-05-05 19:26 45.32863 8.52664 8036 ft 260 kts 57°
2026-05-05 19:26 45.33581 8.55014 8003 ft 260 kts 79°
2026-05-05 19:27 45.33927 8.57531 7997 ft 259 kts 82°
2026-05-05 19:27 45.34256 8.60036 7969 ft 257 kts 81°
2026-05-05 19:27 45.34481 8.62531 7802 ft 252 kts 97°
2026-05-05 19:27 45.33922 8.64828 7507 ft 246 kts 129°
2026-05-05 19:28 45.32678 8.66424 7274 ft 240 kts 153°
2026-05-05 19:28 45.31127 8.67213 7048 ft 236 kts 169°
2026-05-05 19:28 45.29519 8.67664 6870 ft 233 kts 171°
2026-05-05 19:28 45.27955 8.68072 6818 ft 225 kts 171°
2026-05-05 19:29 45.26442 8.68464 6748 ft 217 kts 171°
2026-05-05 19:29 45.24983 8.68848 6649 ft 211 kts 171°
2026-05-05 19:29 45.23542 8.69235 6423 ft 211 kts 170°
2026-05-05 19:29 45.22096 8.69627 6211 ft 210 kts 170°
2026-05-05 19:30 45.20667 8.70017 6075 ft 210 kts 170°
2026-05-05 19:30 45.19230 8.70409 5992 ft 210 kts 170°
2026-05-05 19:30 45.17800 8.70801 5980 ft 209 kts 170°
2026-05-05 19:30 45.16370 8.71194 5972 ft 210 kts 170°
2026-05-05 19:31 45.14933 8.71588 5977 ft 210 kts 170°
2026-05-05 19:31 45.13497 8.71982 5967 ft 211 kts 170°
2026-05-05 19:31 45.12059 8.72376 5972 ft 211 kts 170°
2026-05-05 19:31 45.10619 8.72771 5974 ft 211 kts 170°
2026-05-05 19:32 45.09181 8.73165 5972 ft 210 kts 170°
2026-05-05 19:32 45.07763 8.73669 5968 ft 212 kts 154°
2026-05-05 19:32 45.06766 8.75159 5820 ft 215 kts 112°
2026-05-05 19:32 45.06719 8.77213 5515 ft 219 kts 71°
2026-05-05 19:33 45.07697 8.78882 5131 ft 224 kts 28°
2026-05-05 19:33 45.09162 8.79514 4834 ft 223 kts 13°
2026-05-05 19:33 45.10677 8.80011 4518 ft 223 kts 13°
2026-05-05 19:33 45.12182 8.80507 4240 ft 221 kts 13°
2026-05-05 19:34 45.13698 8.80695 4028 ft 218 kts 355°
2026-05-05 19:34 45.15235 8.80517 4010 ft 223 kts 355°
2026-05-05 19:34 45.16783 8.80369 3977 ft 221 kts 356°
2026-05-05 19:35 45.19817 8.80127 3973 ft 218 kts 356°
2026-05-05 19:35 45.21339 8.80020 3980 ft 220 kts 357°
2026-05-05 19:35 45.22865 8.79918 3999 ft 220 kts 357°
2026-05-05 19:35 45.24397 8.79821 3990 ft 220 kts 358°
2026-05-05 19:36 45.25925 8.79728 3998 ft 219 kts 358°
2026-05-05 19:36 45.27447 8.79637 3994 ft 219 kts 358°
2026-05-05 19:36 45.28970 8.79547 3996 ft 219 kts 358°
2026-05-05 19:36 45.30491 8.79459 3998 ft 219 kts 358°
2026-05-05 19:37 45.32009 8.79372 3998 ft 218 kts 358°
2026-05-05 19:37 45.33524 8.79285 3992 ft 217 kts 358°
2026-05-05 19:37 45.35008 8.79201 3978 ft 208 kts 358°
2026-05-05 19:37 45.36393 8.79122 3980 ft 191 kts 358°
2026-05-05 19:38 45.37704 8.79048 4006 ft 187 kts 358°
2026-05-05 19:38 45.38997 8.78974 4019 ft 186 kts 358°
2026-05-05 19:38 45.40291 8.78901 4007 ft 186 kts 358°
2026-05-05 19:38 45.41585 8.78828 3998 ft 186 kts 358°
2026-05-05 19:39 45.42877 8.78744 3997 ft 186 kts 355°
2026-05-05 19:39 45.44160 8.78527 3997 ft 185 kts 351°
2026-05-05 19:39 45.45435 8.78216 3945 ft 187 kts 349°
2026-05-05 19:39 45.46732 8.77866 3706 ft 190 kts 349°
2026-05-05 19:40 45.48019 8.77510 3468 ft 187 kts 349°
2026-05-05 19:40 45.49268 8.77163 3227 ft 183 kts 349°
2026-05-05 19:40 45.50505 8.76819 2982 ft 180 kts 350°
2026-05-05 19:40 45.51732 8.76479 2746 ft 180 kts 350°
2026-05-05 19:41 45.52955 8.76140 2499 ft 178 kts 351°
2026-05-05 19:41 45.54170 8.75803 2265 ft 177 kts 351°
2026-05-05 19:41 45.55343 8.75478 2026 ft 168 kts 351°
2026-05-05 19:41 45.56473 8.75164 1797 ft 162 kts 351°
2026-05-05 19:42 45.57552 8.74865 1589 ft 158 kts 351°
2026-05-05 19:42 45.58611 8.74570 1361 ft 151 kts 349°
2026-05-05 19:42 45.59622 8.74295 1172 ft 145 kts 349°
2026-05-05 19:42 45.60622 8.74021 975 ft 146 kts 348°
2026-05-05 19:43 45.61612 8.73745 806 ft 144 kts 351°
2026-05-05 19:43 45.62535 8.73487 765 ft 122 kts 353°
2026-05-05 19:43 45.63185 8.73304 755 ft 69 kts 349°
2026-05-05 19:43 45.63586 8.73176 756 ft 50 kts 340°
2026-05-05 19:44 45.63797 8.72953 756 ft 29 kts 308°
2026-05-05 19:44 45.63855 8.72838 757 ft 6 kts 308°
2026-05-05 19:44 45.63880 8.72792 756 ft 6 kts 305°
2026-05-05 19:44 45.63887 8.72772 757 ft 8 kts 299°
2026-05-05 19:45 45.63926 8.72683 755 ft 11 kts 292°
2026-05-05 19:45 45.63892 8.72593 756 ft 12 kts 197°
2026-05-05 19:45 45.63813 8.72604 756 ft 11 kts 169°
2026-05-05 19:45 45.63735 8.72625 758 ft 12 kts 169°
2026-05-05 19:46 45.63652 8.72649 757 ft 13 kts 169°
2026-05-05 19:46 45.63541 8.72681 758 ft 20 kts 169°
2026-05-05 19:46 45.63417 8.72657 756 ft 18 kts 240°
2026-05-05 19:46 45.63389 8.72485 754 ft 18 kts 259°
2026-05-05 19:47 45.63372 8.72360 756 ft 20 kts 259°
2026-05-05 19:47 45.63349 8.72185 758 ft 4 kts 258°
2026-05-05 19:47 45.63345 8.72161 755 ft 4 kts 258°
2026-05-05 19:47 45.63340 8.72123 758 ft 4 kts 258°
2026-05-05 19:48 45.63332 8.72064 755 ft 10 kts 260°
2026-05-05 19:48 45.63314 8.71983 755 ft 4 kts 224°
2026-05-05 19:48 45.63312 8.71981 755 ft 0 kts 220°
2026-05-05 19:48 45.63291 8.71970 757 ft 7 kts 191°
2026-05-05 19:49 45.63241 8.71979 756 ft 7 kts 169°
2026-05-05 19:49 45.63203 8.71990 756 ft 0 kts 169°
2026-05-05 19:49 45.63202 8.71990 758 ft 1 kts 169°
2026-05-05 19:50 45.63172 8.71998 756 ft 8 kts 169°
2026-05-05 19:50 45.63112 8.72016 758 ft 10 kts 168°
2026-05-05 19:50 45.63028 8.72039 756 ft 15 kts 169°
2026-05-05 19:50 45.62912 8.72070 758 ft 19 kts 169°
2026-05-05 19:51 45.62766 8.72111 757 ft 23 kts 169°
2026-05-05 19:51 45.62593 8.72159 757 ft 27 kts 168°
2026-05-05 19:51 45.62405 8.72211 758 ft 27 kts 168°
2026-05-05 19:51 45.62225 8.72261 757 ft 25 kts 169°
2026-05-05 19:52 45.62060 8.72307 757 ft 23 kts 169°
2026-05-05 19:52 45.61901 8.72350 756 ft 24 kts 169°
2026-05-05 19:52 45.61739 8.72395 758 ft 23 kts 169°
2026-05-05 19:52 45.61607 8.72432 756 ft 14 kts 168°
2026-05-05 19:53 45.61559 8.72445 755 ft 1 kts 169°
2026-05-05 19:53 45.61556 8.72446 756 ft 0 kts 169°
2026-05-05 19:53 45.61552 8.72447 756 ft 0 kts 169°
2026-05-05 19:53 45.61541 8.72449 757 ft 4 kts 170°
2026-05-05 19:54 45.61492 8.72462 758 ft 10 kts 169°
2026-05-05 19:54 45.61424 8.72459 756 ft 10 kts 216°
2026-05-05 19:54 45.61400 8.72382 757 ft 8 kts 258°
2026-05-05 19:54 45.61390 8.72306 759 ft 8 kts 259°
2026-05-05 19:55 45.61378 8.72230 757 ft 9 kts 245°
2026-05-05 19:55 45.61326 8.72201 757 ft 9 kts 174°
2026-05-05 19:55 45.61245 8.72220 758 ft 14 kts 168°
2026-05-05 19:55 45.61151 8.72210 755 ft 14 kts 224°
2026-05-05 19:56 45.61122 8.72083 759 ft 13 kts 258°
2026-05-05 19:56 45.61111 8.72008 756 ft 5 kts 259°
2026-05-05 19:56 45.61109 8.71992 757 ft 1 kts 259°
2026-05-05 19:56 45.61109 8.71991 757 ft 0 kts 259°